Location: Unspecified
(0.0000°N, 0.0000°E)
Time: 11:57:06
(UTC+00:00)

deb r/b Ablestar - Pass Details

Date: 16 April 2026
Orbit: 834 x 1371 km, 65.9° (Epoch: 10 May)

Event Time Altitude Azimuth Distance (km) Brightness Sun altitude
Exits shadow 05:01:30 -1° 206° (SSW) 3,918 ? -14.4°
Rises 05:01:41 0° 207° (SSW) 3,855 ? -14.3°
Reaches altitude 10° 05:04:12 10° 209° (SSW) 2,971 ? -13.7°
Maximum altitude 05:11:18 68° 291° (WNW) 1,297 ? -12.0°
Drops below altitude 10° 05:19:18 10° 12° (NNE) 3,323 ? -10.0°
Sets 05:22:16 0° 15° (NNE) 4,337 ? -9.3°
